Previsão horária em Cehok

Hoje, 25 Julho, Domingo

Tempo Temperatura Precipitação Vento Pressão Humidade
00:00 +16°C° 0.5 mm 0 m/s 631 mmHg 97%
01:00 +16°C° 0.4 mm 0 m/s 631 mmHg 97%
02:00 +16°C° 0.4 mm 0 m/s 631 mmHg 97%
03:00 +16°C° 0 mm 0 m/s 631 mmHg 98%
04:00 +16°C° 0.4 mm 0 m/s 631 mmHg 97%
05:00 +16°C° 0.4 mm 0 m/s 631 mmHg 97%
06:00 +18°C° 0.4 mm 1 m/s 631 mmHg 97%
07:00 +19°C° 0.3 mm 1 m/s 631 mmHg 95%
08:00 +19°C° 0.3 mm 1 m/s 632 mmHg 94%
09:00 +19°C° 0 mm 1 m/s 632 mmHg 93%
10:00 +20°C° 0.4 mm 1 m/s 632 mmHg 90%
11:00 +20°C° 0.4 mm 2 m/s 632 mmHg 87%
12:00 +21°C° 0.4 mm 2 m/s 633 mmHg 84%
13:00 +21°C° 0.5 mm 2 m/s 633 mmHg 82%
14:00 +23°C° 0.5 mm 2 m/s 633 mmHg 79%
15:00 +23°C° 0.5 mm 2 m/s 633 mmHg 76%
16:00 +21°C° 0.3 mm 2 m/s 633 mmHg 80%
17:00 +22°C° 0.3 mm 1 m/s 633 mmHg 83%
18:00 +21°C° 0.3 mm 1 m/s 633 mmHg 86%
19:00 +20°C° 0.1 mm 1 m/s 633 mmHg 87%
20:00 +20°C° 0.1 mm 1 m/s 633 mmHg 89%
21:00 +19°C° 0.1 mm 1 m/s 633 mmHg 90%
22:00 +18°C° 0 mm 1 m/s 633 mmHg 90%
23:00 +18°C° 0 mm 1 m/s 633 mmHg 90%

Amanhã, 26 Julho, Segunda-feira

Tempo Temperatura Precipitação Vento Pressão Humidade
00:00 +18°C° 0 mm 1 m/s 633 mmHg 90%
01:00 +16°C° 0.2 mm 1 m/s 633 mmHg 91%
02:00 +16°C° 0.2 mm 1 m/s 633 mmHg 92%
03:00 +16°C° 0.2 mm 1 m/s 633 mmHg 92%
04:00 +16°C° 0.1 mm 1 m/s 633 mmHg 92%
05:00 +18°C° 0.1 mm 1 m/s 633 mmHg 92%
06:00 +18°C° 0.1 mm 1 m/s 633 mmHg 92%
07:00 +20°C° 0.2 mm 1 m/s 634 mmHg 86%
08:00 +21°C° 0.2 mm 2 m/s 634 mmHg 80%
09:00 +23°C° 0.2 mm 2 m/s 634 mmHg 74%
10:00 +24°C° 0.7 mm 2 m/s 634 mmHg 71%
11:00 +25°C° 0.7 mm 2 m/s 634 mmHg 69%
12:00 +26°C° 0.7 mm 3 m/s 634 mmHg 66%
13:00 +26°C° 0.5 mm 2 m/s 634 mmHg 65%
14:00 +26°C° 0.5 mm 2 m/s 634 mmHg 65%
15:00 +26°C° 0.5 mm 2 m/s 634 mmHg 64%
16:00 +25°C° 0.4 mm 2 m/s 633 mmHg 68%
17:00 +24°C° 0.4 mm 1 m/s 633 mmHg 73%
18:00 +23°C° 0.4 mm 1 m/s 633 mmHg 78%
19:00 +22°C° 0.6 mm 1 m/s 633 mmHg 82%
20:00 +20°C° 0.6 mm 1 m/s 633 mmHg 86%
21:00 +18°C° 0.6 mm 1 m/s 633 mmHg 91%
22:00 +18°C° 0.4 mm 1 m/s 632 mmHg 91%
23:00 +18°C° 0.4 mm 1 m/s 632 mmHg 92%

Depois de amanhã, 27 Julho, Terça-feira

Tempo Temperatura Precipitação Vento Pressão Humidade
00:00 +16°C° 0.4 mm 1 m/s 632 mmHg 93%
01:00 +16°C° 0.6 mm 1 m/s 632 mmHg 93%
02:00 +16°C° 0.6 mm 1 m/s 632 mmHg 93%
03:00 +16°C° 0.6 mm 1 m/s 631 mmHg 94%
04:00 +16°C° 0.7 mm 1 m/s 631 mmHg 93%
05:00 +18°C° 0.7 mm 1 m/s 632 mmHg 93%
06:00 +18°C° 0.7 mm 1 m/s 632 mmHg 92%
07:00 +19°C° 0.3 mm 1 m/s 632 mmHg 87%
08:00 +21°C° 0.3 mm 1 m/s 632 mmHg 82%
09:00 +22°C° 0.3 mm 1 m/s 632 mmHg 77%
10:00 +23°C° 0.6 mm 2 m/s 632 mmHg 76%
11:00 +23°C° 0.6 mm 2 m/s 632 mmHg 75%
12:00 +23°C° 0.6 mm 2 m/s 632 mmHg 74%
13:00 +23°C° 0.9 mm 2 m/s 632 mmHg 74%
14:00 +23°C° 0.9 mm 1 m/s 631 mmHg 74%
15:00 +23°C° 0.9 mm 1 m/s 631 mmHg 73%
16:00 +22°C° 1.8 mm 1 m/s 631 mmHg 79%
17:00 +20°C° 1.8 mm 1 m/s 630 mmHg 85%
18:00 +18°C° 1.8 mm 2 m/s 630 mmHg 91%
19:00 +17°C° 6.7 mm 2 m/s 630 mmHg 92%
20:00 +16°C° 6.7 mm 2 m/s 630 mmHg 93%
21:00 +14°C° 6.7 mm 3 m/s 630 mmHg 93%
22:00 +14°C° 0.2 mm 3 m/s 630 mmHg 94%
23:00 +15°C° 0.2 mm 2 m/s 630 mmHg 94%

28 Julho, Quarta-feira

Tempo Temperatura Precipitação Vento Pressão Humidade
00:00 +15°C° 0.2 mm 2 m/s 630 mmHg 94%
01:00 +15°C° 0.1 mm 2 m/s 630 mmHg 93%
02:00 +15°C° 0.1 mm 2 m/s 630 mmHg 93%
03:00 +15°C° 0.1 mm 2 m/s 630 mmHg 92%
04:00 +15°C° 0.1 mm 2 m/s 630 mmHg 92%
05:00 +14°C° 0.1 mm 3 m/s 630 mmHg 92%
06:00 +14°C° 0.1 mm 3 m/s 630 mmHg 92%
07:00 +15°C° 0.1 mm 2 m/s 630 mmHg 89%
08:00 +16°C° 0.1 mm 2 m/s 631 mmHg 87%
09:00 +16°C° 0.1 mm 2 m/s 631 mmHg 84%
10:00 +16°C° 0.1 mm 2 m/s 631 mmHg 84%
11:00 +17°C° 0.1 mm 2 m/s 631 mmHg 83%
12:00 +17°C° 0.1 mm 2 m/s 631 mmHg 82%
13:00 +17°C° 0.1 mm 2 m/s 631 mmHg 83%
14:00 +17°C° 0.1 mm 2 m/s 631 mmHg 83%
15:00 +16°C° 0.1 mm 2 m/s 631 mmHg 83%
16:00 +16°C° 0.2 mm 2 m/s 631 mmHg 85%
17:00 +15°C° 0.2 mm 2 m/s 631 mmHg 88%
18:00 +15°C° 0.2 mm 2 m/s 631 mmHg 90%
19:00 +14°C° 0.1 mm 2 m/s 631 mmHg 89%
20:00 +14°C° 0.1 mm 2 m/s 631 mmHg 89%
21:00 +13°C° 0.1 mm 2 m/s 632 mmHg 88%
22:00 +13°C° 0 mm 2 m/s 631 mmHg 87%
23:00 +13°C° 0 mm 2 m/s 631 mmHg 86%

29 Julho, Quinta-feira

Tempo Temperatura Precipitação Vento Pressão Humidade
00:00 +13°C° 0 mm 1 m/s 631 mmHg 85%
01:00 +12°C° 0 mm 1 m/s 631 mmHg 85%
02:00 +12°C° 0 mm 1 m/s 631 mmHg 86%
03:00 +11°C° 0 mm 1 m/s 630 mmHg 87%
04:00 +12°C° 0 mm 1 m/s 630 mmHg 85%
05:00 +12°C° 0 mm 1 m/s 631 mmHg 84%
06:00 +13°C° 0 mm 1 m/s 631 mmHg 83%
07:00 +15°C° 0 mm 1 m/s 631 mmHg 78%
08:00 +16°C° 0 mm 1 m/s 632 mmHg 73%
09:00 +19°C° 0 mm 1 m/s 632 mmHg 68%
10:00 +19°C° 0 mm 2 m/s 632 mmHg 67%
11:00 +20°C° 0 mm 2 m/s 632 mmHg 65%
12:00 +20°C° 0 mm 3 m/s 632 mmHg 64%
13:00 +20°C° 0.1 mm 2 m/s 632 mmHg 66%
14:00 +20°C° 0.1 mm 2 m/s 632 mmHg 68%
15:00 +20°C° 0.1 mm 2 m/s 632 mmHg 70%
16:00 +20°C° 0.1 mm 1 m/s 631 mmHg 74%
17:00 +20°C° 0.1 mm 1 m/s 631 mmHg 78%
18:00 +17°C° 0.1 mm 0 m/s 631 mmHg 83%
19:00 +18°C° 0 mm 1 m/s 631 mmHg 85%
20:00 +16°C° 0 mm 1 m/s 631 mmHg 88%
21:00 +15°C° 0 mm 1 m/s 631 mmHg 91%
22:00 +15°C° 0 mm 1 m/s 631 mmHg 92%
23:00 +15°C° 0 mm 1 m/s 631 mmHg 92%

30 Julho, Sexta-feira

Tempo Temperatura Precipitação Vento Pressão Humidade
00:00 +14°C° 0 mm 1 m/s 631 mmHg 93%
01:00 +14°C° 0 mm 1 m/s 630 mmHg 91%
02:00 +14°C° 0 mm 1 m/s 630 mmHg 90%
03:00 +14°C° 0 mm 1 m/s 630 mmHg 89%
04:00 +14°C° 0 mm 1 m/s 630 mmHg 87%
05:00 +14°C° 0 mm 1 m/s 630 mmHg 86%
06:00 +15°C° 0 mm 1 m/s 631 mmHg 85%
07:00 +18°C° 0 mm 1 m/s 631 mmHg 77%
08:00 +19°C° 0 mm 1 m/s 631 mmHg 70%
09:00 +21°C° 0 mm 1 m/s 632 mmHg 62%
10:00 +21°C° 0 mm 2 m/s 632 mmHg 59%
11:00 +23°C° 0 mm 2 m/s 632 mmHg 56%
12:00 +24°C° 0 mm 3 m/s 632 mmHg 53%
13:00 +24°C° 0.1 mm 2 m/s 631 mmHg 55%
14:00 +24°C° 0.1 mm 2 m/s 631 mmHg 57%
15:00 +24°C° 0.1 mm 2 m/s 631 mmHg 59%
16:00 +23°C° 0.1 mm 2 m/s 631 mmHg 64%
17:00 +22°C° 0.1 mm 1 m/s 631 mmHg 70%
18:00 +21°C° 0.1 mm 1 m/s 631 mmHg 75%
19:00 +20°C° 0 mm 1 m/s 631 mmHg 79%
20:00 +18°C° 0 mm 1 m/s 631 mmHg 82%
21:00 +16°C° 0 mm 1 m/s 631 mmHg 85%
22:00 +15°C° 0 mm 1 m/s 631 mmHg 86%
23:00 +15°C° 0 mm 1 m/s 631 mmHg 87%
Mostrar mais

Necessitamos do seu Consentimento

A Meteoprog e os seus Fornecedores de Serviços podem armazenar e aceder a dados pessoais como cookies, identificadores do dispositivo ou outras tecnologias semelhantes existentes no seu dispositivo e processar estes dados para personalizar conteúdos e anúncios, assim como funcionalidades nas redes sociais e análise de tráfego.

  • Armazenar e/ou aceder a informações no seu dispositivo

    Os cookies, identificadores do dispositivo ou outras informações podem ser armazenados ou acedidos no seu dispositivo, para os fins acima indicados.

  • Anúncios e conteúdos personalizados, medição de anúncios e conteúdos, dados sobre o público-alvo e desenvolvimento de produtos

    Os anúncios e os conteúdos podem ser personalizados com base num perfil. Podem ser adicionados dados adicionais para uma maior personalização dos anúncios e dos conteúdos. A eficácia dos anúncios e dos conteúdos pode ser medida. Podem ser obtidas informações sobre o público que visualizou os anúncios e os conteúdos. Estes dados podem ser usados para desenvolver ou melhorar sistemas, softwares ou a experiência do utilizador.

Ao clicar em "Eu concordo”, permitirá o uso de cookies, identificadores do dispositivo e web beacons mencionados ou outras tecnologias semelhantes. As configurações do navegador do seu dispositivo podem ser alteradas.

Para certos fins, podem ser invocados interesses legítimos ao invés de consentimento. Pode ler mais informação sobre este assunto na nossa Política de Privacidade e Cookies.